Regional Weather Roundup
Issued by NWS Boston, MA

Home | Current Version | Previous Version | Text Only | Print | Product List | Glossary On
Versions: 1 2 3 4 5 6 7 8 9 10 11 12 13 14 15 16 17 18 19 20 21 22 23 24 25 26 27
000
ASUS41 KBOX 150610
RWRBOX

REGIONAL WEATHER ROUNDUP
NATIONAL WEATHER SERVICE TAUNTON MA
100 AM EST FRI DEC 15 2017

NOTE:  "FAIR" INDICATES FEW OR NO CLOUDS BELOW 12,000 FEET WITH NO
SIGNIFICANT WEATHER AND/OR OBSTRUCTIONS TO VISIBILITY.

MAZALL-150700-
EASTERN MASSACHUSETTS

CITY           SKY/WX    TMP DP  RH WIND       PRES   REMARKS
BOSTON         PTCLDY    19   6  57 W14       30.01R WCI   6
6HR MIN TEMP:  19; 6HR MAX TEMP:  24;

BEVERLY        CLEAR     17   5  59 W8        29.99R WCI   7
LAWRENCE       CLEAR     18   5  57 SW8       30.01R WCI   8
BEDFORD        CLEAR     15   4  61 CALM      30.00R
BLUE HILL        N/A     14   3  61 W13       29.95S WCI   0
NORWOOD        CLEAR     18   6  59 SW6       30.02R WCI  10
MARSHFIELD     CLEAR     18   5  57 VRB6      30.01R WCI   9
PLYMOUTH       CLEAR     17   4  56 W5        30.01S WCI  10
TAUNTON        CLEAR     15   4  61 CALM      30.02S
NEW BEDFORD    CLEAR     17   5  59 W7        30.02R WCI   8
$$

MAZALL-150700-
CAPE COD AND THE ISLANDS

CITY           SKY/WX    TMP DP  RH WIND       PRES   REMARKS
FALMOUTH       CLEAR     16   5  62 W10       30.03R WCI   3
HYANNIS        CLEAR     17   5  59 W7        30.01R WCI   8
CHATHAM        CLEAR     16   7  67 W5        30.02R WCI   9
PROVINCETOWN   CLEAR     22  12  65 W17G31    30.01  WCI   8
NANTUCKET      CLEAR     21  12  68 W10       30.02R WCI  10
MARTHAS VNYRD  CLEAR    N/A N/A N/A NW8       30.03R
$$

MAZALL-150700-
CENTRAL AND WESTERN MASSACHUSETTS

CITY           SKY/WX    TMP DP  RH WIND       PRES   REMARKS
WORCESTER      CLEAR     12   2  64 W8        29.93R WCI   0
6HR MIN TEMP:  11; 6HR MAX TEMP:  15;

FITCHBURG      CLEAR     18   6  59 W9        29.98R WCI   7
ORANGE         NOT AVBL
SPRINGFIELD    CLEAR     16   4  60 CALM      30.01F
WESTFIELD      CLEAR     17   6  62 W8        30.02F WCI   7
NORTH ADAMS    CLOUDY    15   6  67 W12       30.01S WCI   2
PITTSFIELD     CLOUDY    12   3  67 S7        29.96R WCI   1
$$

RIZALL-150700-
RHODE ISLAND

CITY           SKY/WX    TMP DP  RH WIND       PRES   REMARKS
PROVIDENCE     CLEAR     17   5  59 W7        30.02F WCI   8
6HR MIN TEMP:  17; 6HR MAX TEMP:  22;

NEWPORT        CLEAR     18   6  59 NW7       30.02F WCI   9
BLOCK ISLAND   CLEAR     21  10  62 NW10G20   30.05S WCI  10
SMITHFIELD     CLEAR     14   5  67 W9        29.98F WCI   2
WESTERLY       CLEAR     17   5  59 W5        30.05F WCI  10
$$

CTZALL-150700-
CONNECTICUT

CITY           SKY/WX    TMP DP  RH WIND       PRES   REMARKS
BRADLEY INTL   PTCLDY    17   5  59 W5        30.03F WCI  10
6HR MIN TEMP:  16; 6HR MAX TEMP:  18;

HARTFORD       CLEAR     17   4  56 W6        30.06F WCI   9
BRIDGEPORT     CLEAR     19   4  51 W5        30.07S WCI  12
DANBURY        CLEAR     14   3  61 SW5       30.05R WCI   6
GROTON         CLEAR     18   5  57 W6        30.05F WCI  10
NEW HAVEN      CLEAR     20   4  50 W6        30.06S WCI  12
CHESTER        FAIR      16   3  57 W5        30.02S WCI   9
MERIDEN        CLEAR     10   5  80 CALM      30.05F
WILLIMANTIC    CLEAR     12   5  73 CALM      30.03F
OXFORD         CLEAR     12   3  67 W5        30.01S WCI   4
$$

MEZ002-015-021-024-NHZ003-005-008-011-012-014-VTZ005-008-150700-
NORTHERN NEW ENGLAND

CITY           SKY/WX    TMP DP  RH WIND       PRES   REMARKS
PORTLAND ME    CLEAR     14  -1  51 VRB6      29.94R WCI   5
6HR MIN TEMP:  14; 6HR MAX TEMP:  19;

BANGOR ME      CLEAR      7  -1  70 W3        29.86R
CONCORD NH     CLEAR     13   1  59 W5        29.96R WCI   5
MANCHESTER NH  PTCLDY    16   2  54 W6        29.96R WCI   7
NASHUA NH      CLEAR      7  -2  66 SW3       29.99R
PORTSMOUTH NH  CLEAR     15   1  53 W7        29.96R WCI   5
JAFFREY NH     CLEAR     12   4  70 W6        29.91S WCI   3
KEENE NH       CLEAR      1  -3  83 CALM      29.98S
BURLINGTON VT  CLEAR      4  -2  76 CALM      29.99S
MT. WASHINGTON BLWGSNOW -15 -15 100 W72         N/A  VSB 1/16WCI -57
$$

NYZ052-076-150700-
EASTERN NEW YORK

CITY           SKY/WX    TMP DP  RH WIND       PRES   REMARKS
ALBANY         MOCLDY    11   4  73 CALM      30.06S
6HR MIN TEMP:   9; 6HR MAX TEMP:  19;

NEW YORK CITY  PTCLDY    24   7  48 NW12      30.10R WCI  13
6HR MIN TEMP:  23; 6HR MAX TEMP:  29;

$$

ANZALL-150700-
MARINE OBSERVATIONS

STATION/POSITION TIME  TEMP    WIND        PRES    VSBY  WAVE
                       AIR SEA DIR/SP/G                  HT/PER
                 (UTC) (F)     (DEG/KT/KT) (MB)    (MI)  (FT/S)
BOSTON BUOY      0450   24 47  280/ 21/ 27 1014.5          4/ 4
BUZZARDS BAY     0500   22     300/ 23/ 27 1017.2F
NANTUCKET SOUND  0450   24 42  310/ 19/ 25 1015.8          3/ 5
MASS BAY-STELLWA 0504   23 47  300/ 21/ 27 1014.8R         3/ 5
ISLE OF SHOALS   0500   19     260/ 20/ 24 1014.0R
S OF BLOCK IS    0543      53                N/A           7/ 5
$$

......................KEY.........................
  SKY/WX - SKY CONDITION/PRESENT WEATHER
  TMP    - TEMPERATURE IN FAHRENHEIT
  DWPT   - DEWPOINT IN FAHRENHEIT
  RH     - RELATIVE HUMIDITY IN PERCENT
  WIND   - DIRECTION AND SPEED IN MPH
  PRES   - MEAN SEA LEVEL PRESSURE IN INCHES OF HG
  WCI    - WIND CHILL INDEX
  VSB    - VISIBILITY IN MILES
  HX     - HEAT INDEX
  TC     - TEMPERATURE IN CELSIUS
  VRB    - VARIABLE WIND DIRECTION
  N/A    - NOT AVAILABLE




USA.gov is the U.S. government's official web portal to all federal, state and local government web resources and services.